Content
SEND FEEDBACK

Daily
Averages
Monthly
Summary
Italy

VIBO VALENTIA, ITALY


Home > Europe > Italy
Elevation: 1844 feet     Latitude: 38 54N     Longitude: 016 30E

WEATHER
 
SELECT A DAY
Number of Records: 162,950;   Date Range: 7/1/96 - 7/9/14
 
SHARE

PRINT THIS DATA

[ ← Previous Day ]
WEATHER ALMANAC - JANUARY 31, 2013
[ Next Day → ]
[ °C ]   °F
Weather ElementAverageHighLow
Temperature56.7 °F59 °F (11:50 am)55.4 °F (1:50 am)
Dewpoint49.8 °F51.8 °F (7:50 pm)48.2 °F (1:50 am)
Humidity77.7 %88 % (9:50 pm)72 % (8:50 am)
Barometer30.19 in30.33 in (3:50 am)30.12 in (5:50 am)
Wind Speed14.4 mph21.9 mph (7:50 am)
Weather ElementAverage
Visibility6.2 mi
Wind DirectionWSW (263.5 °)

Weather ElementTotal
Precipitation---
Heating Degree Days7.8 (Base 65)
Growing Degree Days7.2 (Base 50)
Averaged from 23 records on January 31, 2013
WEATHER CONDITIONS BREAKOUT
WIND DIRECTION BREAKOUT
WEATHER BY HOUR - JANUARY 31, 2013
[ °C ]   °F
Local TimeTemperatureDewpointHumidityBarometerVisibilityWind DirectionWind SpeedGust SpeedPrecipitationEventsConditions
1:50 AM55.4 °F48.2 °F77 %30.18 in6.2 miWest (270°)17.3 mphMostly Cloudy
2:50 AM55.4 °F48.2 °F77 %30.18 in6.2 miWest (280°)17.3 mphMostly Cloudy
3:50 AM55.4 °F48.2 °F77 %30.33 in6.2 miSSW (210°)17.3 mphMostly Cloudy
4:50 AM55.4 °F48.2 °F77 %30.15 in6.2 miWest (280°)18.4 mphMostly Cloudy
5:50 AM55.4 °F50.0 °F82 %30.12 in6.2 miWest (270°)17.3 mphMostly Cloudy
6:50 AM55.4 °F48.2 °F77 %30.12 in6.2 miWest (270°)17.3 mphMostly Cloudy
7:50 AM55.4 °F48.2 °F77 %30.12 in6.2 miWest (270°)21.9 mphMostly Cloudy
8:50 AM57.2 °F48.2 °F72 %30.12 in6.2 miWest (270°)20.7 mphScattered Clouds
9:50 AM57.2 °F50.0 °F77 %30.15 in6.2 miWest (260°)18.4 mphScattered Clouds
10:50 AM57.2 °F50.0 °F77 %30.18 in6.2 miWest (270°)16.1 mphMostly Cloudy
11:50 AM59.0 °F50.0 °F72 %30.18 in6.2 miWest (270°)15.0 mphMostly Cloudy
12:50 PM59.0 °F50.0 °F72 %30.18 in6.2 miWest (270°)13.8 mphScattered Clouds
1:50 PM59.0 °F50.0 °F72 %30.15 in6.2 miWest (280°)19.6 mphScattered Clouds
2:50 PM59.0 °F50.0 °F72 %30.18 in6.2 miWest (270°)17.3 mphPartly Cloudy
3:50 PM59.0 °F50.0 °F72 %30.15 in6.2 miWest (270°)15.0 mphPartly Cloudy
4:50 PM57.2 °F50.0 °F77 %30.18 in6.2 miWest (260°)11.5 mphScattered Clouds
5:50 PM55.4 °F50.0 °F82 %30.21 in6.2 miWSW (250°)9.2 mphScattered Clouds
6:50 PM55.4 °F50.0 °F82 %30.21 in6.2 miWest (270°)11.5 mphScattered Clouds
7:50 PM57.2 °F51.8 °F82 %30.24 in6.2 miWest (260°)9.2 mphMostly Cloudy
8:50 PM57.2 °F51.8 °F82 %30.24 in6.2 miWSW (240°)5.8 mphMostly Cloudy
9:50 PM55.4 °F51.8 °F88 %30.24 in6.2 miWSW (250°)5.8 mphMostly Cloudy
10:50 PM55.4 °F51.8 °F88 %30.24 in6.2 miWest (260°)6.9 mphMostly Cloudy
11:50 PM57.2 °F50.0 °F77 %30.21 in6.2 miWest (260°)8.1 mphMostly Cloudy
Hourly data recorded from LICA, located miles away from Vibo Valentia, Italy







STORIES FROM OUR PARTNERS